Weather in Lages

Brazil     27°49′10″S   50°19′15″W
temp.,
°C
wind,
m/s
gust,
m/s
humid.,
%
clouds,
%
prec.,
mm/h
press.,
hPa
HPBL,
m
18 may, tue
tue1800:00+6ssw129858 0.0 102153
03:00+5ssw119910 0.0 102119
06:00+4ssw119810 0.0 102127
09:00+10sw13763 0.0 1021287
12:00+17wsw24420 0.0 10181117
15:00+18sw24350 0.0 10161433
18:00+10ssw11670 0.0 101811
21:00+7s11760 0.0 102010
19 may, wed
wed1900:00+5s11810 0.0 102110
03:00+4sse11862 0.0 102010
06:00+4ssw11855 0.0 102010
09:00+11wsw115885 0.0 1018176
12:00+19w233180 0.0 1016786
15:00+20wsw24275 0.0 10141171
18:00+11ssw11625 0.0 101611
21:00+8sse117193 0.0 101811
20 may, thu
thu2000:00+7e007478 0.0 101810
03:00+6se117773 0.0 101710
06:00+6se01771 0.0 101810
09:00+12wsw005512 0.0 1017161
12:00+20sw123481 0.0 1015724
15:00+21w123570 0.0 1013929
18:00+13s2267100 0.0 101544
21:00+12sse1171100 0.1 101617
21 may, fri
fri2100:00+10ene11825 0.0 101618
03:00+9ene129538 0.0 101534
06:00+9e1198100 0.0 101545
09:00+12ene2588100 0.0 1015299
12:00+13ne2591100 0.2 1014412
15:00+12ene25100100 4.1 1012253
18:00+12ne2999100 1.6 1012401
21:00+12ne2999100 3.1 1013467
22 may, sat
sat2200:00+13ne26100100 9.8 1013274
03:00+13nne31099100 15.5 1011439
06:00+13ne2999100 0.6 1011438
09:00+14ne14100100 0.6 1013270
12:00+15nw0397100 0.0 1012292
15:00+19w257696 0.1 1009931
18:00+14wsw119911 1.8 101119
21:00+13sw019989 2.4 101211